Location: ????
(55.5675°N, 37.6272°E)
Time: 06:06:10
(UTC+00:00)

NOSS 3-4 (C) - Pass Details

Date: 14 April 2026
Orbit: 773 x 1438 km, 63.4° (Epoch: 26 December)

Event Time Altitude Azimuth Distance (km) Brightness Sun altitude
Rises 23:38:18 0° 298° (WNW) 3,478 6.3 -19.5°
Reaches altitude 10° 23:40:44 10° 304° (WNW) 2,612 5.7 -19.3°
Maximum altitude 23:46:40 50° 20° (NNE) 1,277 4.5 -18.8°
Drops below altitude 10° 23:53:40 10° 95° (E) 3,060 6.5 -18.2°
Sets 23:56:43 0° 100° (E) 4,125 7.2 -17.9°
